Regional Weather Roundup
Issued by NWS

Home | Current Version | Previous Version | Graphics & Text | Print | Product List | Glossary On
Versions: 1 2 3 4 5 6 7 8 9 10 11 12 13 14 15 16 17 18 19 20 21 22 23 24 25 26 27
000
ASUS45 KBOI 040810
RWRID

IDAHO REGIONAL WEATHER ROUNDUP
NATIONAL WEATHER SERVICE BOISE ID
200 AM MDT WED MAY 04 2016

NOTE: "FAIR" INDICATES FEW OR NO CLOUDS BELOW 12000 FEET
WITH NO SIGNIFICANT WEATHER AND/OR OBSTRUCTIONS TO VISIBILITY

IDZ012-014-040900-
SOUTHWEST IDAHO


CITY           SKY/WX    TMP DP  RH WIND       PRES   REMARKS
BOISE          MOCLDY    63  34  33 SE10      30.00S
CALDWELL       MOCLDY    59  37  44 CALM      29.99S
MOUNTAIN HOME  PTCLDY    58  37  45 E14       30.02R
$$

IDZ016-017-040900-
SOUTHCENTRAL IDAHO


CITY           SKY/WX    TMP DP  RH WIND       PRES   REMARKS
BURLEY         PTCLDY    53  29  39 SE5       30.11F
JEROME         PTCLDY    54  27  35 E9        30.10S
TWIN FALLS     PTCLDY    56  30  37 S15       30.08S
$$

IDZ019>023-040900-
SOUTHEAST IDAHO


CITY           SKY/WX    TMP DP  RH WIND       PRES   REMARKS
IDAHO FALLS    CLEAR     44  34  67 N5        30.18S
POCATELLO      CLEAR     43  37  79 NE3       30.17S
REXBURG        CLEAR     43  31  62 NE6       30.19S
$$

IDZ006-010-011-018-031-032-040900-
CENTRAL IDAHO MOUNTAINS


CITY           SKY/WX    TMP DP  RH WIND       PRES   REMARKS
MCCALL         PTCLDY    43  36  76 CALM      30.12S
HAILEY         CLEAR     45  32  61 NW8       30.21S
STANLEY          N/A     38  26  62 CALM      30.24S
SALMON         CLEAR     45  28  53 E3        30.11R
CHALLIS        CLEAR     45  24  43 SW3       30.17S
$$

IDZ002-004-006-007-026-040900-
NORTHERN IDAHO


CITY           SKY/WX    TMP DP  RH WIND       PRES   REMARKS
LEWISTON       MOCLDY    59  45  59 W6        29.94R
LOWELL           N/A     53  48  83 N3        30.03R
COEUR D`ALENE  CLEAR     52  43  71 E5        29.94R
MULLAN PASS    CLEAR     57  28  33 SW5       30.14S
$$




USA.gov is the U.S. government's official web portal to all federal, state and local government web resources and services.